Regional Weather Roundup
Issued by NWS

Home | Current Version | Previous Version | Graphics & Text | Print | Product List | Glossary On
Versions: 1 2 3 4 5 6 7 8 9 10 11 12 13 14 15 16 17 18 19 20 21 22 23 24 25 26 27 28 29 30 31 32 33 34 35 36 37 38 39 40 41 42 43 44 45 46 47 48 49 50
500
ASUS44 KLIX 230405
RWRLA
LOUISIANA WEATHER ROUNDUP
NATIONAL WEATHER SERVICE NEW ORLEANS LA
1100 PM CDT TUE JUL 22 2014

NOTE: "FAIR" INDICATES FEW OR NO CLOUDS BELOW 12,000 FEET WITH NO
      SIGNIFICANT WEATHER AND/OR OBSTRUCTIONS TO VISIBILITY.
      SKY/WX - SKY CONDITION AND SIGNIFICANT WEATHER.
      TMP - AIR TEMPERATURE.    DP   - DEWPOINT TEMPERATURE.
      RH  - RELATIVE HUMIDITY.  PRES - PRESSURE.
      HX  - HEAT INDEX.         WCI  - WIND CHILL INDEX.

*  THESE STATIONS ARE NOT NWS OR FAA STATIONS AND ARE NOT UNDER
   NWS QUALITY CONTROL.

LAZ040-048-061>063-065-066-069-230500-
SOUTHEAST LOUISIANA

CITY           SKY/WX    TMP DP  RH WIND       PRES   REMARKS
N.O. AUDUBON     N/A     82  73  75 MISG        N/A
N.O. INTL ARPT MOCLDY    79  71  76 E6        30.03S
N.O. LAKEFRONT MOCLDY    80  72  76 E12       30.04R
N.O. DOWNTOWN* FAIR      81  68  65 NE5       30.04S
SLIDELL        MOCLDY    73  68  84 CALM      30.03S
BATON ROUGE    PTCLDY    75  72  90 NE6       30.04R
BOOTHVILLE     PTCLDY    79  72  79 SE5       30.04S
BELLE CHASSE   PTCLDY    77  73  87 E5        30.03R
BOGALUSA*        N/A     72  69  89 N3        30.07R FOG
GALLIANO*      NOT AVBL
NEW ROADS*     FAIR      73  72  96 CALM      30.04R
GONZALES*      FAIR      77  76  98 CALM      30.03R
HAMMOND*       CLOUDY    77  70  78 N3        30.06R
HOUMA*         CLOUDY    76  71  84 NE6       30.02S
PORT FOURCHON* PTCLDY    82  77  83 S5        30.04R

$$

LAZ041-044-053-054-230500-
SOUTHWEST LOUISIANA

CITY           SKY/WX    TMP DP  RH WIND       PRES   REMARKS
LAKE CHARLES   CLEAR     76  74  93 CALM      30.02S
LAFAYETTE      MOCLDY    78  72  81 CALM      30.02F
PATTERSON      MOCLDY    79  75  89 N3        30.05F
SALT POINT       N/A     82  75  79 CALM      30.01S
NEW IBERIA     MOCLDY    80  72  76 NE7       30.02F
CHENAULT AIRPK CLEAR     79  73  81 CALM      30.03S

$$

LAZ027-028-230500-
CENTRAL LOUISIANA

CITY           SKY/WX    TMP DP  RH WIND       PRES   REMARKS
FORT POLK      CLEAR     78  72  81 NE3       30.04R
ALEXANDRIA INT CLEAR     78  72  81 SE3       30.03R
ALEXANDRIA     CLEAR     76  73  91 CALM      30.05R

$$

LAZ001-002-230500-
NORTHWEST LOUISIANA

CITY           SKY/WX    TMP DP  RH WIND       PRES   REMARKS
SHREVEPORT     PTCLDY    76  70  82 CALM      30.04S
BARKSDALE AFB  CLEAR     74  71  88 E3        30.05R
DTN SHREVEPORT CLEAR     75  70  84 CALM      30.05R

$$

LAZ014-016-230500-
NORTHEAST LOUISIANA

CITY           SKY/WX    TMP DP  RH WIND       PRES   REMARKS
MONROE         PTCLDY    76  72  87 CALM      30.05F
TALLULAH       PTCLDY    75  73  93 CALM      30.04S

$$




USA.gov is the U.S. government's official web portal to all federal, state and local government web resources and services.